Погода в Онеге

Хотите узнать прогноз погоды в Онеге? Тогда Вам сюда: Погода в Онеге

Поиск расширенной информации на нашем сайте:

Полезная информация:

Новости сайта



02.01.2020
Опубликован Долгосрочный прогноз погоды по городам России и ближнего зарубежья на январь 2020 года.
Карты: Прогноз на январь и февраль 2020 года, Сравнение прогнозируемой аномалии приземной температуры воздуха на январь 2020 года по разным моделям.




Погода в Онеге - сегодня

Время (UTC), дата Ветер
(°,м/с) 
Видим.   Явления Облачность Т
(°С)
Тd
(°С)
f(%) Тe
(°С)
Pmin
(гПа)
dP
(гПа)
Po
(мм)
O2
(г/м3)
Тmin Tmax R s Состояние
почвы
12 29.11.20 160 (Ю) 50000 м  {снег}  10/10 180 м 
[St]
-7.5 -8.3 94 -11  1037.3  -0.2  777  323           
15 29.11.20 130 (ЮВ) 50000 м    10/10 210 м 
[St]
-6.7 -7.5 94 -8  1036.6  -0.7  776  322    -6.4  0.0     
18 29.11.20 140 (ЮВ) 20000 м    10/10 210 м 
[St]
-5.9 -6.6 95 -7  1036  -0.6  776  320           
21 29.11.20 130 (ЮВ) 20000 м    10/10 1080 м 
[Sc]
-5.9 -7 92 -7  1035  -1  775  320           
00 30.11.20 130 (ЮВ) 50000 м    10/10 270 м 
[St]
-5.5 -6.5 93 -7  1033.8  -1.1  774  319           
03 30.11.20 120 (ЮВ) 20000 м  {снег}  10/10 210 м 
[St]
-4.8 -5.5 95 -6  1032  -1.9  773  318  -6.7    0.2  10  равномерный
сухой снег
100% 
06 30.11.20 120 (ЮВ) 20000 м  в посл. час морось{снег}  10/10 120 м 
[St]
-4.2 -4.6 97 -6  1030.8  -1.2  772  316           
09 30.11.20 130 (ЮВ) 20000 м  снежные кристаллы  10/10 840 м кучево-дожд. 
[Cb cap]
-3.2 -4.3 92 -4  1030.1  -0.7  771  315           
12 30.11.20 140 (ЮВ) 50000 м  {снег}  10/10 210 м 
[St]
-2.4 -3.4 93 -3  1028.4  -1.7  770  313           
15 30.11.20 140 (ЮВ) 50000 м    10/10 210 м 
[St]
-1.6 -2.4 94 -3  1026.3  -2  769  312    -1.6  0.0     
18 30.11.20 140 (ЮВ) 20000 м    10/10 210 м 
[St]
-0.8 -1.6 94 -2  1024.3  -2  767  310           
21 30.11.20 120 (ЮВ) 20000 м    10/10 180 м 
[St]
-0.1 -0.9 94 -1  1022.5  -1.9  766  309           
00 01.12.20 140 (ЮВ) 50000 м  {снег}  10/10 180 м 
[St]
+0.2 -0.3 96 -1  1021  -1.4  765  308           
03 01.12.20 150 (ЮВ) 20000 м  {снег}  8/3 300 м средняя, верхняя 
[Frnb|Ac trans|Ci sp]
+0.4 -0.9 91 -1  1020.5  -0.5  764  308  -1.6    0.2  равномерный
сухой снег
100% 
06 01.12.20 150 (ЮВ) 20000 м  {снег}  9/4 600 м средняя 
[Sc|Ac trans]
-0 -1.3 91 -2  1020.7  0.2  764  308           
09 01.12.20 170 (Ю) 20000 м  слаб. ливневой снег  9/3 600 м кучево-дожд., средняя 
[Cb cap|Ac trans]
+0.4 -2.1 83 -2  1020.9  0.2  765  308           
12 01.12.20 180 (Ю) 50000 м  {ливн. осадки}  10/8 800 м средняя 
[Sc|Ac und]
-0.5 -3 83 -2  1021.2  0.3  765  309           
15 01.12.20 160 (Ю) 50000 м    10/10 720 м 
[Sc]
-0.9 -2.7 88 -3  1021.3  0.1  765  310    +0.4  0.0     
18 01.12.20 150 (ЮВ) 20000 м    9/0 средняя 
[Ac trans]
-1.3 -2.4 92 -2  1021.1  -0.2  765  310           
00 02.12.20 210 (ЮЗ) 20000 м  слаб. ливневой дождь  10/10 210 м кучево-дожд. 
[Cb cap]
+0.9 +0.2 95 -1  1020.8  0.9  764  307           
03 02.12.20 250 (З) 20000 м  {ливн. осадки}  10/10 330 м 
[St]
+1 -0.3 91 -1  1023.2  2.5  766  308  -1.5    равномерный
мокрый или
старый снег
100% 
06 02.12.20 230 (ЮЗ) 20000 м  {ливн. осадки}  10/10 300 м верхняя 
[St|As trans|Cs]
+1 -0.3 91 -1  1025.3  2.1  768  308           
09 02.12.20 210 (ЮЗ) 20000 м    10/4 600 м средняя 
[Sc|Ac lent]
+0.9 -0.4 91 -1  1027  1.7  769  309           
12 02.12.20 200 (Ю) 50000 м    10/10 720 м 
[Sc]
+0.3 -1.3 89 -1  1027.8  0.8  770  310           
15 02.12.20 210 (ЮЗ) 20000 м  {ливн. осадки}  10/10 540 м 
[Sc]
-0.3 -2.1 88 -1  1028.3  0.4  770  311    +1  0.0     
Время (UTC), дата Ветер
(°,м/с) 
Видим.   Явления Облачность Т
(°С)
Тd
(°С)
f(%) Тe
(°С)
Pmin
(гПа)
dP
(гПа)
Po
(мм)
O2
(г/м3)
Тmin Tmax R s Состояние
почвы

Для получения пояснительной информации подведите курсор к названию столбца.

ПОГОДА в Онеге - архив

Всё, что Вы хотите узнать о погоде в Онеге - удобно и подробно!

Выберите нужную дату (начиная с 1 января 2019* года) и нажмите кнопку "Найти".
Будут отображены архивные сводки погоды по пункту Онега, начиная с указанной даты.


Отображать данные в формате CSV (для использования в таблицах Excel)


Внимание! Наш архив погоды предназначен исключительно для личного некоммерческого использования в познавательных целях. Если Вам необходимы официальные справки о состоянии погоды (для производственных, юридических, коммерческих и т.п. целей), обращайтесь в органы Росгидромета.

*Примечание: данная дата относится к архиву по метеостанциям СССР (Россия, СНГ, Балтия).
Архив по метеостанциям Зарубежной Европы и Азии (кроме Китая) хранится 10 дней, по другим регионам земного шара (Китай, Африка, Америка, Австралия, Океания) - 1 день.

Онега - район местоположения метеостанции


Название, широта, долгота, высота метеостанции:
Онега 63.9°ш. 38.1°д. 13 м над ур. моря [Российская Федерация]

Дополнительная информация

В oтличие oт бoльшинства пoгoдных сайтoв мы публикуем пoдрoбную метеoинфoрмацию в детальнoм прoфессиoнальнoм фoрмате.

Характеристики температуры и влажнoсти вoздуха измеряются на высoте 2 м в тени вдали oт зданий и деревьев.
Скoрoсть ветра измеряется на высoте 10 м (на урoвне рoста челoвека скoрoсть ветра ниже в 1.5-2 раза). Если метеoстанция нахoдится в гoрoде или в лесу, тo скoрoсть ветра занижена на 2-4 м/с пo сравнению с oткрытым местoм. Скoрoсть ветра над акватoриями крупных рек и oзёр, а также на вершинах хoлмoв на 2-5 м/с выше, чем в oбычных услoвиях.
Атмoсфернoе давление в разных тoчках местнoсти мoжет значительнo oтличаться oт давления на метеoстанции, в зависимoсти oт услoвий рельефа (при пoдъёме на 10 м давление пoнижается примернo на 1 мм рт.ст.).